Location: Ettringen
(48.1054°N, 10.6545°E)
Time: 20:39:29
(UTC+00:00)

Cosmos 841 Rocket - Pass Details

Date: 18 November 2025
Orbit: 742 x 768 km, 74.0° (Epoch: 10 December)

Event Time Altitude Azimuth Distance (km) Brightness Sun altitude
Rises 17:26:41 0° 338° (NNW) 3,248 6.9 -18.3°
Reaches altitude 10° 17:29:06 10° 342° (NNW) 2,318 6.1 -18.6°
Maximum altitude 17:34:20 67° 65° (ENE) 837 3.4 -19.5°
Enters shadow 17:38:53 14° 146° (SSE) 2,055 5.5 -20.3°
